Location: Balaclava NSW 2575, Australia
(34.4510°S, 150.4953°E)
Time: 00:08:43
(UTC+10:00)

A-11 Canister half - Pass Details

Date: 13 June 2021
Orbit: 1513 x 1687 km, 47.2° (Epoch: 28 July)

Event Time Altitude Azimuth Distance (km) Brightness Sun altitude
Rises 20:44:17 0° 258° (WSW) 4,766 12.3 -46.5°
Reaches altitude 10° 20:47:40 10° 250° (WSW) 3,808 11.6 -47.2°
Enters shadow 20:53:28 32° 219° (SW) 2,521 10.2 -48.4°
